Location: Strohbehn Observatory
(42.4649°N, 93.8239°W)
Time: 11:16:34
(UTC-05:00)

SL-16 R/B - Visible Passes

Search period start: 01 October 2014 00:00
Search period end: 11 October 2014 00:00
Orbit: 843 x 846 km, 71.0° (Epoch: 01 October)

Date Brightness Start Highest point End Pass type
(mag) Time Alt. Az. Time Alt. Az. Time Alt. Az.
03 Oct 3.4 06:45:47 10° NNW 06:51:15 47° ENE 06:56:42 10° SE visible
04 Oct 3.4 06:31:38 10° NNW 06:37:05 46° ENE 06:42:29 10° SE visible
04 Oct 4.4 21:23:40 10° SSW 21:24:10 13° SSW 21:24:10 13° SSW visible
05 Oct 3.4 06:17:29 10° NNW 06:22:54 44° ENE 06:28:17 10° SE visible
05 Oct 2.6 21:09:31 10° SSW 21:13:36 50° S 21:13:36 50° S visible
06 Oct 3.5 06:03:20 10° NNW 06:08:44 43° ENE 06:14:05 10° SE visible
06 Oct 2.0 20:55:21 10° SSW 21:01:00 77° ESE 21:06:41 10° NNE visible
06 Oct 4.5 22:41:51 10° W 22:45:46 19° NW 22:49:43 10° N visible
07 Oct 3.5 05:49:11 10° NNW 05:54:33 41° ENE 05:59:52 10° SE visible
07 Oct 2.0 20:41:12 10° SSW 20:46:50 74° ESE 20:52:30 10° NNE visible
07 Oct 4.5 22:27:34 10° W 22:31:34 19° NW 22:35:36 10° N visible
08 Oct 3.5 05:35:02 10° NNW 05:40:22 40° ENE 05:45:39 10° SE visible
08 Oct 2.1 20:27:03 10° SSW 20:32:40 72° ESE 20:38:20 10° NNE visible
08 Oct 4.5 22:13:17 10° W 22:17:22 20° NW 22:21:29 10° N visible
09 Oct 3.6 05:20:53 10° N 05:26:11 39° ENE 05:31:26 10° SE visible
09 Oct 2.1 20:12:54 10° SSW 20:18:30 69° ESE 20:24:09 10° NNE visible
09 Oct 4.5 21:59:01 10° W 22:03:10 21° NW 22:07:21 10° N visible
10 Oct 3.6 05:06:44 10° N 05:12:00 37° ENE 05:17:13 10° SE visible
10 Oct 2.9 06:51:01 10° NW 06:56:01 33° WSW 07:00:59 10° SSW visible
10 Oct 2.1 19:58:45 10° SSW 20:04:21 67° ESE 20:09:58 10° NNE visible
10 Oct 4.5 21:44:45 10° W 21:48:59 21° NW 21:53:14 10° N visible
